Location: Newark
(48.3453°N, 0.5589°E)
Time: 05:17:31
(UTC+00:00)

A-11 Canister half - Pass Details

Date: 11 December 2019
Orbit: 1517 x 1683 km, 47.2° (Epoch: 24 January)

Event Time Altitude Azimuth Distance (km) Brightness Sun altitude
Rises 20:00:28 0° 286° (WNW) 4,914 12.6 -38.3°
Reaches altitude 10° 20:05:53 10° 263° (W) 3,939 11.8 -39.2°
Maximum altitude 20:10:08 13° 237° (WSW) 3,663 11.3 -39.9°
Drops below altitude 10° 20:14:24 10° 212° (SSW) 3,938 11.3 -40.6°
Sets 20:19:53 0° 188° (S) 4,913 11.6 -41.5°
